Regional Weather Roundup
Issued by NWS

Home | Current Version | Previous Version | Graphics & Text | Print | Product List | Glossary On
Versions: 1 2 3 4 5 6 7 8 9 10 11 12 13 14 15 16 17 18 19 20 21 22 23 24 25 26 27 28 29 30 31 32 33 34 35 36 37 38 39 40 41 42 43 44 45 46 47 48 49 50
000
ASUS43 KOAX 281202
RWRNE

WEATHER ROUNDUP FOR NEBRASKA
NATIONAL WEATHER SERVICE OMAHA NE
700 AM CDT WED JUN 28 2017

NOTES: SATELLITE DATA IS BEING USED TO AUGMENT CLOUD COVER ABOVE
       12000 FEET.
       "FAIR" INDICATES FEW OR NO CLOUDS BELOW 12,000 FEET WITH NO
       SIGNIFICANT WEATHER AND/OR OBSTRUCTIONS TO VISIBILITY.

  * THESE STATIONS DO NOT REPORT WEATHER SUCH AS RAIN...SNOW OR FOG.

NEZ001>004-019>022-054>056-281300-
NEBRASKA PANHANDLE

CITY           SKY/WX    TMP DP  RH WIND       PRES   REMARKS
SCOTTSBLUFF    CLEAR     53  47  79 NW7       29.88R
6HR MIN TEMP:  52; 6HR MAX TEMP:  59;

ALLIANCE       CLEAR     51  48  89 W3        29.84S
6HR MIN TEMP:  49; 6HR MAX TEMP:  57;

CHADRON        CLEAR     57  50  77 W3        29.83R
6HR MIN TEMP:  55; 6HR MAX TEMP:  63;

GORDON         FAIR      55  50  85 NW7       29.82R
6HR MIN TEMP:  53; 6HR MAX TEMP:  60;

KIMBALL        CLEAR     55  45  68 NW9       29.94R
SIDNEY         CLEAR     53  46  77 W10       29.90R
6HR MIN TEMP:  50; 6HR MAX TEMP:  55;

$$

NEZ057>060-069>072-079>082-281300-
SOUTHWEST NEBRASKA

CITY           SKY/WX    TMP DP  RH WIND       PRES   REMARKS
NORTH PLATTE   CLEAR     59  57  93 W3        29.77R
6HR MIN TEMP:  55; 6HR MAX TEMP:  66; 6HR PCP: TRACE;

IMPERIAL       CLEAR     58  52  80 NW13      29.81R
6HR MIN TEMP:  56; 6HR MAX TEMP:  67;

LEXINGTON      CLEAR     62  60  94 NW3       29.75R FOG
MCCOOK         CLEAR     64  60  87 SW8       29.76S
6HR MIN TEMP:  62; 6HR MAX TEMP:  80; 6HR PCP: TRACE;

OGALLALA       CLEAR     59  53  83 W6        29.82S
$$

NEZ005>010-023>029-035>040-094-281300-
NORTH CENTRAL NEBRASKA

CITY           SKY/WX    TMP DP  RH WIND       PRES   REMARKS
VALENTINE      CLEAR     60  52  74 W9        29.73R
6HR MIN TEMP:  59; 6HR MAX TEMP:  70;

AINSWORTH      CLEAR     62  56  82 W13       29.71S
BROKEN BOW     CLEAR     62  58  86 NW8       29.74R
6HR MIN TEMP:  57; 6HR MAX TEMP:  66;

O`NEILL        CLOUDY    61  58  92 S8        29.70R
ORD            CLOUDY    62  59  90 NW3       29.72R
6HR MIN TEMP:  61; 6HR MAX TEMP:  68; 6HR PCP:  0.01;

THEDFORD       CLEAR     60  55  82 W9        29.77R
$$

NEZ041-046>049-061>064-073>077-083>087-281300-
SOUTH CENTRAL NEBRASKA

CITY           SKY/WX    TMP DP  RH WIND       PRES   REMARKS
GRAND ISLAND   CLOUDY    66  66 100 S6        29.71F
6HR MIN TEMP:  64; 6HR MAX TEMP:  67; 6HR PCP:  0.25;

AURORA         PTCLDY    67  67  97 S9        29.72R
HASTINGS       PTCLDY    69  62  78 S5        29.73R
6HR MIN TEMP:  66; 6HR MAX TEMP:  71;

HEBRON         CLOUDY    74  67  78 S7        29.73R
HOLDREGE       CLOUDY    65  59  80 CALM      29.74R
KEARNEY *      CLEAR     64  61  88 CALM      29.73S
YORK           MOCLDY    68  66  94 S10       29.72S
$$

NEZ011>018-030>034-042>045-281300-
NORTHEAST NEBRASKA

CITY           SKY/WX    TMP DP  RH WIND       PRES   REMARKS
NORFOLK        CLOUDY    66  62  87 S12       29.69R
6HR MIN TEMP:  65; 6HR MAX TEMP:  67; 6HR PCP:  0.21;

ALBION         CLOUDY    67  62  84 S7        29.70R
BLAIR          CLOUDY    67  63  89 S16       29.70F
FREMONT        MOCLDY    66  63  88 S13G20    29.70S
TEKAMAH        CLOUDY    66  62  87 S12       29.68F
6HR MIN TEMP:  65; 6HR MAX TEMP:  77; 6HR PCP:  0.16;

WAYNE          CLOUDY    66  65  99 SW5       29.70R
$$

NEZ050>053-065>068-078-088>093-281300-
SOUTHEAST NEBRASKA

CITY           SKY/WX    TMP DP  RH WIND       PRES   REMARKS
LINCOLN        CLOUDY    71  68  90 S12       29.73R
6HR MIN TEMP:  64; 6HR MAX TEMP:  78; 6HR PCP:  1.99;

OMAHA EPPLEY   CLOUDY    68  62  81 S18G24    29.69F
6HR MIN TEMP:  65; 6HR MAX TEMP:  76; 6HR PCP:  0.18;

BEATRICE       CLOUDY    72  69  91 SE9       29.75R
FALLS CITY     LGT RAIN  66  65  96 E9G23     29.79F
6HR MIN TEMP:  65; 6HR MAX TEMP:  77; 6HR PCP:  0.38;

NEBRASKA CITY  CLOUDY    65  65 100 S8        29.77R
PLATTSMOUTH    CLOUDY    67  63  87 S10       29.74F
$$

NEZ044-045-051>053-067-281300-
OMAHA AREA

CITY           SKY/WX    TMP DP  RH WIND       PRES   REMARKS
OMAHA EPPLEY   CLOUDY    68  62  81 S18G24    29.69F
6HR MIN TEMP:  65; 6HR MAX TEMP:  76; 6HR PCP:  0.18;

BLAIR          CLOUDY    67  63  89 S16       29.70F
FREMONT        MOCLDY    66  63  88 S13G20    29.70S
MILLARD        PTSUNNY   68  66  93 S12       29.71F
OFFUTT AFB     PTSUNNY   66  63  91 S8        29.72F
PLATTSMOUTH    CLOUDY    67  63  87 S10       29.74F
WAHOO          FAIR      66  64  94 S17       29.70F
$$




USA.gov is the U.S. government's official web portal to all federal, state and local government web resources and services.